CZ-2D DEB, 44605

Orbit data source: Space-Track

CZ-2D DEB, 44605 is space debris in SSO originally from a launch on Fri, 11 Nov 2016 UTC launched from the Jiuquan Satellite Launch Center, China (JSC). Debris objects in space refer to the collection of defunct objects orbiting the Earth. Examples of debris include non-operational satellites, rocket bodies, and fragments generated from explosions, collisions, or faulty payload assembly.

Loading next visibility...
CZ-2D DEB details
Identifier
44605, 2016-068E
Orbit
SSO
Last TLE update10 hours ago
Origin
Flag of CNCASC (CN / PRC)
ManufacturerUnknown
MissionSpacecraft
Bus & MotorUnknown
MassUnknown
Launch date (UTC)
2016-11-11 (8 years ago)
Launch vehicleUnknown
Launch site
Jiuquan Satellite Launch Center, China (JSC)
Object type
Payload
Rocket body
Debris
Shape & HBRUnknown
Radar Cross SectionSmall (<0.1 m²)

Expand to show TLE details & history

TLE from 10 hours ago
0 CZ-2D DEB
1 44605U 16068E   24361.00701800  .00001100  00000-0  77105-3 0  9997
2 44605  98.4482 102.9333 0229457 300.7535  57.1208 13.88397547406445
Epoch: 2024-12-26T00:10Z
Definitive object data (Epoch: 2024-12-26T00:10:06.355Z)
Latitude-0.00005°
Longitude5.41423°
Altitude848.796 km
Speed7.473 km/s
True Right ascension06h 51m 43s
True Declination0° 00' 00"
Sunlit
Object was in full shadow at TLE epoch
Visualization TLE readout
Latitude-77.42606°
Longitude144.30907°
Altitude830.153 km
Speed7.504 km/s
Apparent Right ascension20h 19m 42s
Apparent Declination-64° 00' 12"
Sunlit
Object is in daylight
Visualization observer readout
Local Sidereal Time09:26:17
Azimuth163.351° S
Elevation-64.005°
Doppler factor1
Orbital elements
Apogee altitude1,099.162 km
Perigee altitude763.715 km
Semi-major axis7,309.576 km
Eccentricity0.0229457
Inclination98.4482°
RAAN102.9333°
Arg. of periapsis300.7535°
True anomaly59.36333°
Mean anomaly57.1208°
Eccentric anomaly58.23861°
Mean motion3.473 °/min
BSTAR0.00077105
Orbital period103.66 mins
Loading maneuver chart data...
Loading historical data...
Loading historical data...
Loading historical data...
Loading historical data...
Loading historical data...
Loading historical data...
Loading historical data...

CZ-2D DEB Visibility forecast

Observer location: undefined°, undefined

Span
Click to sort rows by Start time (UTC) header in descending order
Start Az.
Max El. time (UTC)
Max El. Az.
Max El.
End time (UTC)
End Az.
4 mins2024-12-26 18:07:09.757Z65.095° ENE2024-12-26 18:09:09.757Z82.823° E11.887°2024-12-26 18:11:09.757Z101.206° ESE
12 mins2024-12-26 19:47:09.757Z16.189° NNE2024-12-26 19:53:09.757Z140.071° SSE44.345°2024-12-26 19:59:09.757Z190.207° SSW
7 mins2024-12-26 21:31:09.757Z333.74° NNW2024-12-26 21:34:09.757Z303.611° NW18.313°2024-12-26 21:38:09.757Z263.339° W
8 mins2024-12-27 05:44:09.757Z101.523° ESE2024-12-27 05:47:09.757Z64.846° ENE21.662°2024-12-27 05:52:09.757Z12.27° NNE
10 mins2024-12-27 07:25:09.757Z187.953° SSW2024-12-27 07:29:09.757Z255.952° W39.691°2024-12-27 07:35:09.757Z337.916° N
|